[[{"header":{"parameterUnit":"m.s-1","parameterCategory":1,"la1":30.2991,"la2":30.254,"lo1":-89.0895,"lo2":-89.0444,"dy":0.0017,"dx":0.0017,"nx":28,"ny":28,"refTime":"2024-12-12T09:00:00:Z","depth":0,"parameterNumber":2,"parameterNumberName":"U-component_of_WINDS"},"data":[0,0,0,0,0,0,0,0,0,0,0,0,0,0,0,0,0,0,0,0,0,0,0,0,0,0,0,0,0,0,0,0,0,0,0,0,0,0,0,0,0,0,0,0,0,0,0,0,0,0,0,0,0,0,0,0,0,0,-2.0043,-2.0044,0,-2.0102,-2.0102,-2.0103,-2.0004,-2.0001,-1.9997,-1.9994,-2.0056,-2.0061,-2.0066,0,0,0,0,0,0,0,0,0,0,0,0,0,-1.9846,-1.985,-2.0043,-2.0044,-2.0044,-2.0102,-2.0102,-2.0103,-2.0005,-2.0,-1.9996,-1.9992,-2.0055,-2.0061,-2.0066,0,0,0,0,0,0,0,0,0,0,0,0,0,-1.9921,-1.9851,-2.0043,-2.0002,-1.9999,-2.0102,-2.0103,-2.0103,-2.0005,-2.0,-1.9995,-1.999,-2.0053,-2.006,-2.0067,-2.0213,0,0,-2.0089,-2.0092,0,0,0,0,0,0,0,0,-1.9917,-1.9928,-2.0007,-2.0005,-2.0002,-2.004,-2.0056,-2.014,-2.0007,-2.0003,-1.9994,-1.9988,-2.0055,-2.0062,-2.0084,-2.0216,-2.0219,-2.009,-2.0094,-2.0097,-2.0099,0,0,0,0,0,0,0,-1.9912,-1.9925,-2.0066,-2.0008,-2.0005,-1.9981,-1.9986,-2.0071,-2.0057,-2.0003,-1.9996,-2.0004,-2.0053,-2.0078,-2.0085,-2.022,-2.009,-2.0096,-2.01,-2.0103,-2.0474,-2.0479,0,0,0,0,0,0,-1.9911,-1.9921,-2.0064,-2.0068,-1.9946,-1.9989,-1.9994,-2.0033,-2.0056,-2.0054,-2.0008,-1.9999,-2.0068,-2.0077,-2.0087,-2.026,-2.0097,-2.0104,-2.0108,-2.0469,-2.0475,-2.0481,0,0,0,0,0,0,-1.9907,-1.9925,-2.0062,-1.9993,-2.0008,-1.9997,-2.0042,-2.0037,-2.0061,-2.006,-2.0057,-2.0036,-2.0064,-2.0077,-2.0182,-2.0261,-2.0107,-2.0114,-2.0462,-2.0471,-2.0478,-2.0608,0,0,0,0,0,0,-1.9902,-1.9924,-1.998,-1.9995,-2.0012,-2.0157,-2.0046,-2.0042,-2.0074,-2.0063,-2.0085,-2.0084,-2.0061,-2.0172,-2.019,-2.0268,-2.0119,-2.0455,-2.0466,-2.0476,-2.0596,-2.0619,-2.0639,0,0,0,0,0,-1.9895,-2.0014,-1.9983,-2.0001,-2.0081,-2.0161,-2.0172,-2.0142,-2.0081,-2.0136,-2.0135,-2.0083,-2.0249,-2.0184,-2.0203,-2.0284,-2.045,-2.0463,-2.0475,-2.0587,-2.0615,-2.0638,0,0,0,0,0,0,-2.0009,-2.0015,-1.9981,-2.0108,-2.0135,-2.0144,-2.0214,-2.0173,-2.0218,-2.0206,-2.0168,-2.0174,-2.0288,-2.0296,-2.0223,-2.0427,-2.0339,-2.0356,-2.0418,-2.0444,-2.0465,-2.0462,-2.0125,0,0,0,0,0,-2.0049,-2.0113,-2.0115,-2.0226,-2.0241,-2.0226,-2.0259,-2.0234,-2.0261,-2.0272,-2.0279,-2.0307,-2.0365,-2.0405,-2.0458,-2.0596,-2.06,-2.0661,-2.0682,-2.07,-2.0716,-2.079,-2.0818,-2.0522,-2.0522,-2.0522,0,0,-2.0132,-2.0143,-2.0186,-2.0249,-2.0267,-2.0335,-2.0236,-2.0312,-2.0362,-2.0284,-2.0384,-2.039,-2.0419,-2.0542,-2.0596,-2.0552,-2.0798,-2.0716,-2.073,-2.0736,-2.0806,-2.0834,-2.0858,-2.0531,-2.0529,-2.0528,0,0,-2.0318,-2.0333,-2.0428,-2.0447,-2.0475,-2.0464,-2.0486,-2.0502,-2.0503,-2.0603,-2.0545,-2.0604,-2.0705,-2.0729,-2.0754,-2.0947,-2.0902,-2.0966,-2.1078,-2.1151,-2.1174,-2.1195,-2.1265,-2.1291,-2.0981,-2.0981,-2.0981,0,-2.0419,-2.0518,-2.0482,-2.0562,-2.0592,-2.0522,-2.0619,-2.0639,-2.0684,-2.0707,-2.0656,-2.0782,-2.0796,-2.0924,-2.0971,-2.0993,-2.1018,-2.0964,-2.1173,-2.1194,-2.1212,-2.1279,-2.1306,-2.0989,-2.0988,-2.0987,-2.0986,0,-2.064,-2.071,-2.0783,-2.0828,-2.0865,-2.0953,-2.0931,-2.0973,-2.0944,-2.0938,-2.1041,-2.1055,-2.1111,-2.1138,-2.1111,-2.1262,-2.1234,-2.1179,-2.1091,-2.1249,-2.1311,-2.1336,-2.1,-2.0997,-2.0995,-2.0993,0,0,-2.0903,-2.0925,-2.0952,-2.0972,-2.0997,-2.105,-2.1135,-2.1188,-2.1226,-2.1258,-2.1329,-2.1415,-2.1364,-2.1393,-2.1367,-2.143,-2.1585,-2.1368,-2.1368,-2.1409,-2.1753,-2.1797,-2.1827,-2.1553,-2.1558,-2.1562,-2.1752,0,-2.109,-2.1235,-2.1205,-2.1348,-2.1412,-2.1346,-2.142,-2.1443,-2.1439,-2.1494,-2.1488,-2.1551,-2.1478,-2.1495,-2.1555,-2.1553,-2.1654,-2.1539,-2.162,-2.1624,-2.1618,-2.1859,-2.1905,-2.2084,-2.1776,-2.178,-2.1783,0,-2.1328,-2.1369,-2.1519,-2.1533,-2.1559,-2.1626,-2.1672,-2.1724,-2.175,-2.1742,-2.1773,-2.1735,-2.1819,-2.1728,-2.1843,-2.1766,-2.1797,-2.1801,-2.1807,-2.1816,-2.1715,-2.1877,-2.214,-2.2168,-2.182,-2.1817,-2.1815,0,-2.1507,-2.1599,-2.1701,-2.1719,-2.1738,-2.1787,-2.1797,-2.1817,-2.1851,-2.1891,-2.1913,-2.1962,-2.199,-2.203,-2.2006,-2.1941,-2.2126,-2.2033,-2.2124,-2.2125,-2.2168,-2.2166,-2.2443,-2.2184,-2.2184,-2.2183,-2.2183,0,-2.1721,-2.1816,-2.1782,-2.1845,-2.1949,-2.1911,-2.2016,-2.2018,-2.2036,-2.2098,-2.2043,-2.2103,-2.2066,-2.2124,-2.2105,-2.2205,-2.2217,-2.2214,-2.2209,-2.2221,-2.2221,-2.2242,-2.223,-2.219,-2.2189,-2.2187,-2.2186,0,-2.194,-2.1921,-2.2027,-2.2036,-2.204,-2.2117,-2.2124,-2.2183,-2.2173,-2.2253,-2.2269,-2.2255,-2.2319,-2.2298,-2.2367,-2.2355,-2.2482,-2.2459,-2.2474,-2.2469,-2.2562,-2.2555,-2.2864,-2.2903,-2.2617,-2.262,-2.2622,0,-2.2079,-2.215,-2.2166,-2.2203,-2.2217,-2.2278,-2.2312,-2.2278,-2.2316,-2.2349,-2.2404,-2.2463,-2.2509,-2.2614,-2.2611,-2.2663,-2.2642,-2.2747,-2.265,-2.266,-2.2646,-2.2644,-2.2651,-2.2767,-2.2771,-2.2773,-2.2776,0,-2.2328,-2.2315,-2.2366,-2.2414,-2.2456,-2.2492,-2.2523,-2.2557,-2.2524,-2.257,-2.2634,-2.267,-2.2739,-2.2799,-2.2846,-2.2856,-2.2812,-2.2805,-2.283,-2.2844,-2.2851,-2.2851,-2.2529,-2.2799,-2.2797,-2.2795,-2.2794,-2.2793,-2.2513,-2.2573,-2.2594,-2.2652,-2.2672,-2.2702,-2.2758,-2.2755,-2.2808,-2.2862,-2.2837,-2.2913,-2.2935,-2.2993,-2.301,-2.3068,-2.3028,-2.3063,-2.3072,-2.3082,-2.3095,-2.2839,-2.3076,-2.3075,-2.3075,-2.3074,-2.3074,0,-2.2761,-2.2771,-2.2825,-2.287,-2.2916,-2.2867,-2.2899,-2.2941,-2.3008,-2.3032,-2.3077,-2.3152,-2.3209,-2.3209,-2.3262,-2.3309,-2.3289,-2.3324,-2.3322,-2.3325,-2.3126,-2.3101,-2.3339,-2.3339,-2.3339,-2.3338,-2.3338,-2.3338,-2.2896,-2.2996,-2.2985,-2.3094,-2.3102,-2.3175,-2.3197,-2.3225,-2.3244,-2.3329,-2.3376,-2.3375,-2.339,-2.3443,-2.3494,-2.3492,-2.3515,-2.3558,-2.355,-2.3365,-2.3339,-2.3314,-2.329,-2.3563,-2.3563,-2.3743,-2.3745,-2.3746]},{"header":{"parameterUnit":"m.s-1","parameterCategory":1,"la1":30.2991,"la2":30.254,"lo1":-89.0895,"lo2":-89.0444,"dy":0.0017,"dx":0.0017,"nx":28,"ny":28,"refTime":"2024-12-12T09:00:00:Z","depth":0,"parameterNumber":3,"parameterNumberName":"V-component_of_WINDS"},"data":[0,0,0,0,0,0,0,0,0,0,0,0,0,0,0,0,0,0,0,0,0,0,0,0,0,0,0,0,0,0,0,0,0,0,0,0,0,0,0,0,0,0,0,0,0,0,0,0,0,0,0,0,0,0,0,0,0,0,-4.0465,-4.0466,0,-4.0564,-4.0565,-4.0566,-4.051,-4.0507,-4.0504,-4.0502,-4.06,-4.0605,-4.061,0,0,0,0,0,0,0,0,0,0,0,0,0,-4.0222,-4.0227,-4.0465,-4.0466,-4.0467,-4.0564,-4.0565,-4.0567,-4.051,-4.0507,-4.0503,-4.05,-4.0598,-4.0604,-4.0611,0,0,0,0,0,0,0,0,0,0,0,0,0,-4.0325,-4.0228,-4.0464,-4.0451,-4.045,-4.0564,-4.0565,-4.0567,-4.0511,-4.0507,-4.0503,-4.0499,-4.0596,-4.0604,-4.0612,-4.0743,0,0,-4.0635,-4.0639,0,0,0,0,0,0,0,0,-4.0319,-4.0334,-4.0451,-4.0452,-4.0452,-4.052,-4.0516,-4.0626,-4.0512,-4.0488,-4.0501,-4.0497,-4.0577,-4.0586,-4.0613,-4.0747,-4.0752,-4.0636,-4.0641,-4.0644,-4.0646,0,0,0,0,0,0,0,-4.0312,-4.0329,-4.0504,-4.0453,-4.0453,-4.0438,-4.0448,-4.0536,-4.0554,-4.049,-4.0486,-4.0499,-4.0576,-4.0606,-4.0615,-4.0753,-4.0636,-4.0643,-4.0648,-4.0651,-4.0998,-4.1003,0,0,0,0,0,0,-4.0306,-4.0324,-4.0501,-4.0507,-4.0374,-4.0446,-4.0457,-4.0502,-4.0553,-4.0557,-4.0502,-4.0495,-4.0595,-4.0606,-4.0619,-4.0775,-4.0644,-4.0651,-4.0656,-4.0994,-4.0999,-4.1004,0,0,0,0,0,0,-4.0301,-4.0323,-4.0497,-4.0414,-4.0435,-4.0455,-4.0506,-4.0507,-4.0537,-4.0562,-4.0565,-4.053,-4.0592,-4.0608,-4.0712,-4.0778,-4.0655,-4.0662,-4.0988,-4.0996,-4.1002,-4.109,0,0,0,0,0,0,-4.0295,-4.0321,-4.0372,-4.0416,-4.044,-4.059,-4.051,-4.0512,-4.0551,-4.0543,-4.0589,-4.0593,-4.059,-4.0701,-4.072,-4.0786,-4.0668,-4.0983,-4.0992,-4.1,-4.1081,-4.1099,-4.1114,0,0,0,0,0,-4.0286,-4.0393,-4.0375,-4.0397,-4.0504,-4.0594,-4.0608,-4.0603,-4.0556,-4.0607,-4.0623,-4.0591,-4.0767,-4.0712,-4.0733,-4.0803,-4.0979,-4.0989,-4.0999,-4.1074,-4.1095,-4.1113,0,0,0,0,0,0,-4.0355,-4.0398,-4.0379,-4.0503,-4.0546,-4.0584,-4.0649,-4.0626,-4.0682,-4.0673,-4.0663,-4.0674,-4.0783,-4.0803,-4.0741,-4.0932,-4.0865,-4.088,-4.0915,-4.0936,-4.0952,-4.0944,-4.0675,0,0,0,0,0,-4.0385,-4.0456,-4.0489,-4.0595,-4.0617,-4.0629,-4.0668,-4.0661,-4.0704,-4.0721,-4.0745,-4.0787,-4.0852,-4.0895,-4.0956,-4.1083,-4.1092,-4.1141,-4.1158,-4.1171,-4.1184,-4.1252,-4.1274,-4.1038,-4.1038,-4.1038,0,0,-4.0447,-4.0479,-4.0524,-4.0609,-4.0641,-4.0713,-4.0645,-4.0724,-4.0777,-4.0733,-4.0834,-4.0853,-4.0899,-4.1015,-4.1068,-4.1035,-4.1251,-4.1184,-4.1194,-4.12,-4.1265,-4.1287,-4.1307,-4.1045,-4.1044,-4.1043,0,0,-4.0597,-4.0629,-4.072,-4.0754,-4.0804,-4.0811,-4.0833,-4.0875,-4.0887,-4.0988,-4.0956,-4.1018,-4.113,-4.1164,-4.1196,-4.1358,-4.133,-4.1377,-4.1463,-4.153,-4.1548,-4.1565,-4.1622,-4.1643,-4.139,-4.1391,-4.1391,0,-4.0668,-4.0776,-4.077,-4.0852,-4.089,-4.0854,-4.0946,-4.0978,-4.1045,-4.1071,-4.1034,-4.1173,-4.1202,-4.1326,-4.1365,-4.1392,-4.1416,-4.1372,-4.1546,-4.1563,-4.1578,-4.1632,-4.1654,-4.1396,-4.1395,-4.1395,-4.1394,0,-4.086,-4.0936,-4.1004,-4.107,-4.1115,-4.1202,-4.1207,-4.1254,-4.1242,-4.1253,-4.1356,-4.1389,-4.1455,-4.1484,-4.1473,-4.1606,-4.1585,-4.1547,-4.148,-4.1606,-4.1657,-4.1678,-4.1404,-4.1402,-4.14,-4.1399,0,0,-4.1057,-4.1119,-4.1144,-4.1173,-4.1225,-4.1282,-4.1366,-4.1433,-4.1472,-4.1519,-4.1589,-4.1684,-4.1649,-4.1685,-4.1678,-4.1737,-4.1862,-4.1692,-4.1692,-4.1722,-4.201,-4.2038,-4.2062,-4.1844,-4.1848,-4.1851,-4.2006,0,-4.121,-4.1359,-4.1355,-4.1493,-4.1562,-4.1528,-4.1601,-4.164,-4.1653,-4.1712,-4.1724,-4.1792,-4.1742,-4.1763,-4.1819,-4.1835,-4.192,-4.1824,-4.1908,-4.1911,-4.1898,-4.2089,-4.2119,-4.2264,-4.2026,-4.2029,-4.2032,0,-4.1409,-4.1463,-4.1608,-4.1649,-4.1678,-4.1744,-4.1804,-4.1861,-4.1904,-4.1909,-4.1949,-4.1932,-4.2016,-4.1947,-4.2062,-4.1997,-4.203,-4.2043,-4.2048,-4.2056,-4.1979,-4.2102,-4.231,-4.2331,-4.2063,-4.206,-4.2058,0,-4.1538,-4.1647,-4.1747,-4.1774,-4.1824,-4.1871,-4.1894,-4.1933,-4.1972,-4.2024,-4.205,-4.211,-4.2144,-4.219,-4.219,-4.2139,-4.2306,-4.2237,-4.2311,-4.2311,-4.2348,-4.2346,-4.2564,-4.237,-4.2369,-4.2369,-4.2369,0,-4.1709,-4.1799,-4.1806,-4.1868,-4.1967,-4.1961,-4.2059,-4.2077,-4.2112,-4.2176,-4.215,-4.221,-4.2205,-4.2266,-4.2266,-4.2361,-4.2376,-4.2381,-4.238,-4.2384,-4.2383,-4.2406,-4.2396,-4.2375,-4.2373,-4.2372,-4.2371,0,-4.187,-4.1879,-4.1986,-4.2025,-4.2037,-4.2108,-4.214,-4.2199,-4.2208,-4.2289,-4.2308,-4.2322,-4.2392,-4.2396,-4.2476,-4.2476,-4.2591,-4.2579,-4.2577,-4.2575,-4.2649,-4.2642,-4.289,-4.2922,-4.2707,-4.2709,-4.2711,0,-4.1979,-4.2047,-4.2094,-4.2135,-4.2161,-4.2228,-4.2269,-4.2265,-4.2308,-4.2362,-4.2413,-4.2481,-4.2534,-4.2647,-4.2664,-4.2725,-4.2714,-4.2797,-4.2723,-4.2724,-4.2715,-4.2711,-4.2718,-4.2811,-4.2813,-4.2815,-4.2817,0,-4.2171,-4.2172,-4.2232,-4.2294,-4.2344,-4.2392,-4.2436,-4.2471,-4.2473,-4.2522,-4.2594,-4.2636,-4.2718,-4.2785,-4.2844,-4.2866,-4.2842,-4.284,-4.286,-4.2865,-4.2861,-4.2864,-4.2617,-4.2834,-4.2833,-4.2831,-4.283,-4.283,-4.231,-4.2369,-4.2411,-4.2478,-4.2512,-4.2554,-4.261,-4.2627,-4.2687,-4.2754,-4.2748,-4.2827,-4.2867,-4.2944,-4.2971,-4.3032,-4.3004,-4.3033,-4.3041,-4.3048,-4.3056,-4.2852,-4.3043,-4.3042,-4.3042,-4.3041,-4.3041,0,-4.2501,-4.2526,-4.2588,-4.2652,-4.2705,-4.2678,-4.2726,-4.2772,-4.2842,-4.2882,-4.2936,-4.3017,-4.3082,-4.3104,-4.3166,-4.3211,-4.3201,-4.3227,-4.3224,-4.323,-4.3078,-4.3054,-4.3234,-4.3234,-4.3234,-4.3234,-4.3234,-4.3234,-4.2606,-4.2705,-4.271,-4.2824,-4.2848,-4.2927,-4.2956,-4.2995,-4.3026,-4.3119,-4.3173,-4.3187,-4.322,-4.3284,-4.3342,-4.3347,-4.3371,-4.3402,-4.3402,-4.326,-4.324,-4.3222,-4.3199,-4.3407,-4.3407,-4.3548,-4.3549,-4.355]}]]